Weather Roundup
Issued by NWS Chicago, IL

Home | Current Version | Previous Version | Text Only | Print | Product List | Glossary Off
Versions: 1 2 3 4 5 6 7 8 9 10 11 12 13 14 15 16 17 18 19 20 21 22 23 24 25 26 27 28 29 30 31 32 33 34 35 36 37 38 39 40 41 42 43 44 45 46 47 48 49 50

000
NZUS59 KLOT 010621
HRRLOT

CHICAGO AREA WEATHER ROUNDUP
NATIONAL WEATHER SERVICE CHICAGO/ROMEOVILLE IL
100 AM CDT TUE SEP 01 2015

NOTE: "FAIR" INDICATES FEW OR NO CLOUDS BELOW 12,000 FEET WITH NO
SIGNIFICANT WEATHER AND/OR OBSTRUCTIONS TO VISIBILITY.

* THESE STATIONS ARE NOT UNDER NWS QUALITY CONTROL. THEY ALSO MAY NOT
  REPORT WEATHER SUCH AS PRECIPITATION OR FOG.

ILZ005-006-012>014-019>023-010700-
NORTHEAST ILLINOIS

CITY           SKY/WX    TMP DP  RH WIND       PRES   REMARKS
OHARE            N/A     71  68  90 S5        30.04S
6HR MIN TEMP:  70; 6HR MAX TEMP:  83;

MIDWAY           N/A     77  68  73 S5        30.04S
6HR MIN TEMP:  77; 6HR MAX TEMP:  83;

AURORA           N/A     70  67  90 S5        30.05S FOG
6HR MIN TEMP:  69; 6HR MAX TEMP:  82;

LANSING*         N/A     69  68  96 CALM      30.06S
JOLIET*        MOCLDY    71  70  98 CALM      30.05S FOG
WAUKEGAN       FOG       65  65 100 CALM      30.04S VSB 1/4
6HR MIN TEMP:  65; 6HR MAX TEMP:  69;

DUPAGE AIRPORT MOCLDY    70  67  90 S5        30.04S FOG
6HR MIN TEMP:  69; 6HR MAX TEMP:  81;

WHEELING         N/A     69  66  90 CALM      30.05S FOG
6HR MIN TEMP:  68; 6HR MAX TEMP:  78;

KANKAKEE*      MOCLDY    71  69  95 CALM      30.07S
MORRIS*          N/A     72  69  91 CALM      30.04S FOG
LEWIS AIRPORT*   N/A     70  68  92 S6        30.05S FOG
NORTHERLY IS     N/A     77  68  73 S3          N/A
$$

WIZ051-052-058>065-066-070>072-010700-
SOUTHEAST WISCONSIN

CITY           SKY/WX    TMP DP  RH WIND       PRES   REMARKS
MILWAUKEE        N/A     69  65  86 S6        30.04S
6HR MIN TEMP:  68; 6HR MAX TEMP:  72;

KENOSHA*         N/A     67  65  93 S3        30.05R
RACINE*          N/A     69  66  90 MISG      30.06S
BURLINGTON     FOG       61  61  99 CALM      30.04S VSB 3/4
WAUKESHA         N/A     64  64 100 S6        30.05S FOG
WEST BEND        N/A     64  63  94 CALM      30.04R FOG
$$

INZ001>003-010>013-019-020-010700-
NORTHWEST INDIANA

CITY           SKY/WX    TMP DP  RH WIND       PRES   REMARKS
GARY*            N/A     74  69  85 S3        30.06S
6HR MIN TEMP:  70; 6HR MAX TEMP:  79;

MICHIGAN CITY* NOT AVBL
RENSSELAER*    NOT AVBL
VALPARAISO       N/A     70  68  93 S3        30.08S
$$

LMZ740>746-010700-
SOUTHERN LAKE MICHIGAN

STATION/POSITION TIME  SKY/WX   TEMP WIND        PRES    VSBY
                                AIR  DIR/SP/G
                 (UTC)          (F)  (DEG/KT/KT) (MB)    (MI)
HARRISON CRIB    0600            77  200/ 11/ 12   N/A
BURNHAM HARBOR   0600            77  190/  4/  6   N/A
CALUMET HARBOR   0500                180/  3/  3   N/A
BURNS HARBOR     0500            76  190/  8/  9 1017.9
MICHIGAN CITY    0500            75  120/  7/  8   N/A
$$

ABBREVIATIONS USED IN REMARKS
   TC - TEMPERATURE IN CELSIUS
  WCI - WIND CHILL INDEX
   HX - HEAT INDEX
  VSB - VISIBILITY
$$


USA.gov is the U.S. government's official web portal to all federal, state and local government web resources and services.